TimeMST,TemperatureF,Dew PointF,Humidity,Sea Level PressureIn,VisibilityMPH,Wind Direction,Wind SpeedMPH,Gust SpeedMPH,PrecipitationIn,Events,Conditions,WindDirDegrees,DateUTC
12:07 AM,60.8,19.4,20,29.67,4.0,WNW,20.7,39.1,N/A,,Haze,300,2012-12-03 07:07:00
12:53 AM,60.1,19.9,21,29.54,8.0,NW,24.2,36.8,N/A,,Clear,310,2012-12-03 07:53:00
1:26 AM,60.8,21.2,22,29.69,2.5,NW,32.2,40.3,N/A,,Haze,310,2012-12-03 08:26:00
1:35 AM,60.8,21.2,22,29.69,6.0,NW,29.9,40.3,N/A,,Haze,310,2012-12-03 08:35:00
1:53 AM,60.1,21.0,22,29.55,10.0,NW,23.0,35.7,N/A,,Clear,320,2012-12-03 08:53:00
2:53 AM,55.9,21.0,26,29.63,10.0,NNE,9.2,-,N/A,,Clear,20,2012-12-03 09:53:00
3:53 AM,57.0,21.0,25,29.63,10.0,WNW,10.4,-,N/A,,Clear,300,2012-12-03 10:53:00
4:53 AM,55.9,24.1,29,29.69,10.0,WNW,13.8,-,N/A,,Clear,300,2012-12-03 11:53:00
5:53 AM,51.1,24.1,35,29.78,10.0,NE,6.9,-,N/A,,Clear,50,2012-12-03 12:53:00
6:53 AM,55.0,26.1,33,29.78,10.0,West,20.7,-,N/A,,Clear,280,2012-12-03 13:53:00
7:53 AM,55.4,24.8,31,29.89,10.0,West,19.6,-,N/A,,Clear,270,2012-12-03 14:53:00
8:53 AM,59.0,24.1,26,29.82,10.0,West,12.7,-,N/A,,Clear,270,2012-12-03 15:53:00
9:53 AM,57.9,26.1,30,29.90,10.0,East,17.3,23.0,N/A,,Partly Cloudy,80,2012-12-03 16:53:00
10:02 AM,57.2,26.6,31,29.97,10.0,ENE,18.4,-,N/A,,Clear,60,2012-12-03 17:02:00
10:53 AM,59.0,23.0,25,29.92,10.0,NE,18.4,-,N/A,,Mostly Cloudy,40,2012-12-03 17:53:00
11:53 AM,60.1,14.0,16,29.87,9.0,East,20.7,28.8,N/A,,Clear,80,2012-12-03 18:53:00
12:53 PM,59.0,12.9,16,29.88,10.0,East,17.3,-,N/A,,Clear,100,2012-12-03 19:53:00
1:53 PM,57.0,12.9,18,29.92,10.0,East,12.7,21.9,N/A,,Clear,100,2012-12-03 20:53:00
2:53 PM,55.9,10.9,17,29.96,10.0,ESE,16.1,-,N/A,,Mostly Cloudy,110,2012-12-03 21:53:00
3:53 PM,53.1,12.0,20,30.00,10.0,ESE,12.7,-,N/A,,Partly Cloudy,110,2012-12-03 22:53:00
4:53 PM,48.9,10.9,22,30.05,10.0,SE,4.6,-,N/A,,Clear,140,2012-12-03 23:53:00
5:53 PM,48.0,12.0,24,30.09,10.0,South,4.6,-,N/A,,Clear,180,2012-12-04 00:53:00
6:53 PM,42.1,10.9,28,30.11,10.0,NE,4.6,-,N/A,,Clear,50,2012-12-04 01:53:00
7:53 PM,39.0,10.9,32,30.13,10.0,ENE,5.8,-,N/A,,Clear,70,2012-12-04 02:53:00
8:53 PM,36.0,10.9,36,30.14,10.0,Calm,Calm,-,N/A,,Clear,0,2012-12-04 03:53:00
9:53 PM,33.1,10.9,40,30.15,10.0,Calm,Calm,-,N/A,,Clear,0,2012-12-04 04:53:00
10:53 PM,30.9,10.9,43,30.17,10.0,North,4.6,-,N/A,,Clear,350,2012-12-04 05:53:00
11:53 PM,27.0,8.1,45,30.20,10.0,Calm,Calm,-,N/A,,Clear,0,2012-12-04 06:53:00